Hourly Data Report for August 08, 2022

QUALICUM BEACH AIRPORT
BRITISH COLUMBIA
Current Station Operator: ECCC - MSC

49°20'14.000" N
124°23'38.000" W
58.20 m
1026562
71766
VOQ

Download Data

Hourly Data (August 2022)
Hourly Data Report for August 8, 2022
TIME
LST
Temp Definition
°C
Dew Point Definition
°C
Rel Hum Definition
%
Precip. Amount Definition
mm

Wind Dir Definition
10's deg

Wind Spd Definition
km/h
Visibility Definition
km
Stn Press Definition
kPa
Hmdx Definition


Wind Chill Definition


Weather Definition


00:00 18.1 13.7 76 0.0 27 2   100.90     LegendNANA
01:00 15.7 13.6 87 0.0 0 1   100.89     LegendNANA
02:00 15.8 13.3 85 0.0 26 3   100.91     LegendNANA
03:00 15.5 13.3 87 0.0 24 4   100.91     LegendNANA
04:00 14.8 12.8 88 0.0 27 4   100.93     LegendNANA
05:00 13.2 12.1 93 0.0 19 3   100.93     LegendNANA
06:00 15.7 13.2 85 0.0 29 3   100.97     LegendNANA
07:00 19.0 13.5 70 0.0 29 11   101.00     LegendNANA
08:00 20.0 13.5 66 0.0 30 11   101.01     LegendNANA
09:00 20.0 13.1 65 0.0 32 14   100.99     LegendNANA
10:00 20.4 13.8 66 0.0 36 11   100.96     LegendNANA
11:00 21.3 13.9 63 0.0 35 9   100.93 25   LegendNANA
12:00 21.5 13.9 62 0.0 2 9   100.90 25   LegendNANA
13:00 23.1 13.8 56 0.0 31 14   100.86 26   LegendNANA
14:00 24.8 14.2 52 0.0 34 9   100.80 28   LegendNANA
15:00 25.5 14.2 50 0.0 32 10   100.76 29   LegendNANA
16:00 24.6 13.6 50 0.0 35 12   100.71 28   LegendNANA
17:00 25.5 14.3 50 0.0 32 8   100.66 29   LegendNANA
18:00 25.1 14.0 50 0.0 32 9   100.63 28   LegendNANA
19:00 25.1 14.4 51 0.0 29 6   100.61 29   LegendNANA
20:00 21.2 14.9 67 0.0 25 5   100.61 25   LegendNANA
21:00 19.8 15.1 74 0.0 24 3   100.66     LegendNANA
22:00 19.0 14.8 77 0.0 30 3   100.69     LegendNANA
23:00 19.7 15.1 75 0.0 33 7   100.72     LegendNANA

Notes on Data Quality.

Legend

  • E = Estimated
  • M = Missing
  • NA = Not Available*
  • [empty] = Indicates an unobserved value
Date modified: